Date,TemperatureHighF,TemperatureAvgF,TemperatureLowF,DewpointHighF,DewpointAvgF,DewpointLowF,HumidityHigh,HumidityAvg,HumidityLow,PressureMaxIn,PressureMinIn,WindSpeedMaxMPH,WindSpeedAvgMPH,GustSpeedMaxMPH,PrecipitationSumIn
2014-1-1,49,35,26,36,28,18,89,76,52,20.93,20.66,2,0,8,0.00
2014-1-2,46,38,23,42,30,14,90,74,57,20.81,20.36,11,2,20,0.33
2014-1-3,29,23,17,16,11,6,75,60,37,21.03,20.81,7,2,20,0.00
2014-1-4,45,32,19,30,21,14,82,64,43,20.95,20.74,4,1,8,0.00
2014-1-5,50,42,35,45,37,30,89,83,59,20.74,20.25,11,2,19,0.35
2014-1-6,35,17,8,31,8,-2,87,67,52,21.08,20.41,11,5,20,0.00
2014-1-7,21,12,3,9,2,-4,79,64,49,21.19,21.07,7,1,20,0.00
2014-1-8,38,24,11,21,13,9,89,65,36,21.18,21.02,3,0,5,0.00
2014-1-9,48,38,27,41,26,20,88,62,42,21.09,20.91,3,1,6,0.00
2014-1-10,48,43,41,40,31,28,88,62,57,20.90,20.49,2,0,3,0.11
2014-1-11,62,54,46,54,39,34,87,59,38,20.51,20.22,10,4,17,1.18
2014-1-12,58,46,33,41,35,27,89,69,39,20.72,20.51,6,1,12,0.00
2014-1-13,47,43,37,42,35,30,88,74,54,20.67,20.40,3,0,6,0.34
2014-1-14,57,48,40,44,36,28,89,65,38,20.54,20.36,6,1,11,0.06
2014-1-15,45,39,26,38,26,17,80,60,32,20.67,20.50,7,2,17,0.00
2014-1-16,46,34,20,23,20,17,88,59,33,20.68,20.46,4,1,10,0.00
2014-1-17,45,34,27,29,21,12,84,60,35,20.69,20.46,13,4,20,0.00
2014-1-18,43,32,20,18,15,11,79,49,28,20.77,20.49,11,2,20,0.00
2014-1-19,50,39,28,30,26,17,79,59,42,20.67,20.46,6,1,10,0.00
2014-1-20,62,46,31,31,29,25,79,53,28,20.59,20.40,7,1,10,0.00
2014-1-21,48,36,20,33,24,6,82,63,49,20.68,20.28,12,4,21,0.00
2014-1-22,32,22,13,11,3,-2,57,45,26,20.77,20.63,5,2,21,0.00
2014-1-23,30,22,14,16,7,-3,83,55,29,21.20,20.76,6,2,16,0.00
2014-1-24,28,17,6,7,2,-1,77,54,29,21.26,20.81,3,1,16,0.00
2014-1-25,43,31,18,22,12,4,68,46,37,20.81,20.42,5,2,9,0.00
2014-1-26,58,38,22,31,25,18,86,62,36,20.54,20.38,7,1,10,0.00
2014-1-27,46,38,22,34,18,1,74,46,21,20.79,20.38,5,2,12,0.00
2014-1-28,22,20,14,16,8,0,85,63,40,20.91,20.80,5,2,10,0.00
2014-1-29,26,16,7,8,2,-4,75,54,36,21.00,20.89,6,1,9,0.00
2014-1-30,40,22,5,17,10,2,88,62,30,20.97,20.72,3,1,8,0.02
2014-1-31,52,36,23,24,20,15,79,53,30,20.82,20.67,3,0,8,0.01
2014-2-1,55,39,25,46,32,21,88,75,45,20.73,20.63,3,0,6,0.00
2014-2-2,51,46,36,40,33,24,81,59,51,20.66,20.43,6,0,6,0.73
2014-2-3,48,42,37,39,35,27,89,76,55,20.77,20.39,6,2,9,1.02
2014-2-4,48,43,40,44,38,35,89,84,64,20.78,20.46,4,2,9,0.01
2014-2-5,47,40,28,44,31,22,88,72,54,20.90,20.38,8,3,17,0.37
2014-2-6,36,30,26,25,23,20,86,74,62,20.98,20.86,4,2,17,0.00
2014-2-7,41,32,22,28,24,19,90,73,55,20.98,20.83,5,1,8,0.00
2014-2-8,48,38,35,36,28,25,78,68,59,20.84,20.71,5,1,8,0.00
2014-2-11,35,34,33,26,25,23,75,69,62,20.81,20.77,0,0,2,0.00
2014-2-12,35,32,31,28,24,19,89,71,52,20.80,20.40,4,1,6,0.12
2014-2-13,46,37,32,34,26,20,89,65,42,20.42,20.33,7,1,10,0.58
2014-2-14,37,34,32,30,30,28,87,82,78,20.44,20.42,1,0,7,0.00
2014-2-15,43,36,27,26,22,19,78,59,42,20.70,20.63,6,2,11,0.00
2014-2-16,62,44,30,34,29,24,87,58,31,20.72,20.63,7,1,12,0.00
2014-2-17,62,47,33,52,37,29,88,70,39,20.77,20.53,4,1,8,0.02
2014-2-18,65,50,32,51,36,21,88,62,34,20.79,20.53,4,1,6,0.10
2014-2-19,73,64,54,59,54,36,87,71,47,20.57,20.46,8,2,16,0.03
2014-2-20,68,62,55,62,55,37,86,78,49,20.56,20.31,4,2,16,0.00
2014-2-21,64,51,40,59,34,19,88,57,22,20.66,20.30,12,4,15,1.06
2014-2-22,67,49,33,35,28,19,88,52,17,20.75,20.56,3,1,11,0.00
2014-2-23,72,56,41,38,32,26,72,44,24,20.61,20.46,7,1,8,0.00
2014-2-24,57,46,38,36,26,18,75,48,26,20.76,20.59,8,2,11,0.00
2014-2-25,58,46,36,32,26,20,73,48,29,20.68,20.51,5,1,11,0.00
2014-2-26,42,36,27,22,16,6,60,45,25,20.62,20.47,6,3,11,0.00
2014-2-27,49,33,19,15,10,6,69,42,23,20.62,20.51,7,1,10,0.00
2014-2-28,53,40,23,23,16,12,72,41,23,20.74,20.61,3,1,8,0.00
2014-3-1,55,49,43,41,35,23,77,60,37,20.81,20.70,4,1,7,0.00
2014-3-2,73,59,45,56,47,39,82,67,52,20.74,20.39,4,1,11,0.00
2014-3-3,62,39,28,54,33,23,88,80,67,20.81,20.31,12,2,25,0.42
2014-3-4,42,34,28,34,28,23,87,79,70,20.81,20.71,4,1,8,0.00
2014-3-5,58,43,30,39,33,23,88,69,39,20.77,20.63,5,1,9,0.00
2014-3-6,54,44,35,38,33,28,87,66,37,0.00,40.00,5,1,8,0.01
2014-3-7,64,50,42,41,37,32,88,63,39,20.59,20.47,4,1,8,0.00
2014-3-8,70,53,36,41,37,30,88,59,23,20.68,20.56,8,2,10,0.00
2014-3-9,70,56,46,43,40,33,82,57,29,20.76,20.63,5,2,9,0.00
2014-3-10,75,58,42,47,41,37,86,58,29,20.67,20.42,7,2,12,0.00
2014-3-11,78,62,43,54,47,39,87,61,35,20.45,20.21,5,1,12,0.00
2014-3-12,68,52,38,59,41,23,84,65,51,0.00,40.00,15,5,26,0.01
2014-3-13,54,41,32,26,20,12,68,46,19,20.79,20.57,9,2,26,0.00
2014-3-14,68,49,29,37,28,21,80,49,25,20.83,20.59,6,2,12,0.00
2014-3-15,69,57,41,45,40,35,81,55,39,20.66,20.52,5,1,7,0.00
2014-3-16,55,52,49,48,38,32,86,59,51,20.53,20.17,4,1,8,0.88
2014-3-17,51,45,42,42,38,31,88,77,52,20.40,20.17,5,2,8,0.35
2014-3-18,53,47,42,46,39,29,88,75,59,20.58,20.38,4,1,7,0.00
2014-3-19,57,50,47,52,46,40,88,85,74,20.62,20.55,4,2,10,0.00
2014-3-20,64,52,41,44,34,22,87,55,20,20.73,20.60,5,1,11,0.00
2014-3-21,69,51,32,38,31,27,86,51,24,20.70,20.55,4,1,11,0.00
2014-3-22,70,56,42,46,41,34,84,58,41,20.59,20.52,4,0,7,0.00
2014-3-23,58,50,43,45,37,27,87,62,35,20.78,20.52,6,2,11,0.37
2014-3-24,57,45,31,29,24,16,81,47,21,20.81,20.55,5,1,10,0.00
2014-3-25,46,41,32,30,22,13,76,48,36,20.79,20.49,11,3,17,0.00
2014-3-26,52,38,26,20,15,7,70,42,20,20.94,20.78,7,1,16,0.00
2014-3-27,68,50,32,35,25,19,68,41,20,20.86,20.61,5,2,14,0.00
2014-3-28,62,57,52,57,50,36,86,77,40,20.68,20.55,4,1,9,0.17
2014-3-29,61,53,44,56,41,36,88,64,49,20.64,20.31,10,2,17,0.36
2014-3-30,65,51,40,39,34,28,83,57,25,20.75,20.64,6,2,16,0.00
2014-3-31,75,54,35,38,32,19,89,50,14,20.77,20.58,6,1,9,0.00
2014-4-1,85,66,50,46,37,17,74,42,8,20.67,20.55,6,1,15,0.00
2014-4-2,85,67,48,56,45,34,77,48,20,20.66,20.53,4,1,9,0.00
2014-4-3,82,71,63,62,59,56,82,66,47,20.57,20.41,6,1,11,0.00
2014-4-4,67,64,57,61,57,45,87,79,61,20.52,20.30,8,2,14,0.39
2014-4-5,60,53,43,45,38,34,79,59,42,20.67,20.52,7,2,11,0.00
2014-4-6,66,54,44,49,41,37,86,63,41,20.62,20.46,3,1,11,0.21
2014-4-7,61,54,51,56,43,34,85,65,51,20.47,20.14,12,2,15,1.18
2014-4-8,64,56,44,45,42,38,86,61,38,20.39,20.25,6,2,12,0.00
2014-4-9,69,60,49,47,38,31,75,47,25,20.68,20.39,7,2,11,0.00
2014-4-10,78,59,40,46,41,36,87,55,26,20.78,20.63,4,1,9,0.00
2014-4-11,77,66,54,55,48,42,85,53,36,20.74,20.59,6,1,9,0.02
2014-4-12,83,67,52,60,50,34,86,56,36,20.75,20.56,4,1,8,0.00
2014-4-13,82,71,58,59,55,51,80,59,40,20.64,20.43,4,1,11,0.00
2014-4-14,70,65,61,62,55,40,86,71,45,20.49,20.28,3,1,10,0.30
2014-4-18,62,58,52,47,44,42,79,61,49,20.87,20.69,3,1,8,0.00
2014-4-19,68,59,51,50,46,42,84,64,40,20.70,20.65,7,1,12,0.00
2014-4-20,77,61,44,54,45,31,86,59,28,20.79,20.63,7,1,12,0.00
2014-4-21,81,66,48,54,49,44,86,59,31,20.70,20.48,5,1,7,0.00
2014-4-22,74,65,60,64,58,52,85,78,64,20.48,20.33,3,0,5,0.00
2014-4-23,73,62,49,55,42,36,85,51,28,20.57,20.41,7,2,10,0.00
2014-4-24,81,63,44,54,44,38,83,52,27,20.59,20.38,3,1,10,0.00
2014-4-25,76,68,57,62,56,50,84,67,46,20.52,20.30,10,2,16,0.01
2014-4-26,83,65,46,52,46,34,85,56,25,20.59,20.46,3,1,15,0.00
2014-4-27,85,66,51,65,53,41,86,66,40,20.52,20.38,8,1,17,0.15
2014-4-28,81,70,62,69,56,40,85,61,39,20.44,20.15,6,1,15,0.56
2014-4-29,79,71,64,68,57,40,85,63,38,20.34,20.15,4,1,15,0.22
2014-4-30,70,65,58,64,56,45,86,74,50,20.48,20.27,5,1,16,0.18
2014-5-1,68,58,48,52,44,39,87,61,36,20.58,20.46,7,2,16,0.00
2014-5-2,71,57,47,48,44,40,86,65,37,20.54,20.43,6,1,14,0.00
2014-5-9,75,69,65,69,63,57,85,82,75,20.60,20.54,2,0,11,0.00
2014-5-10,81,69,63,69,57,43,85,65,45,20.62,20.51,4,1,11,0.02
2014-5-11,82,71,62,70,59,41,85,66,44,20.69,20.57,3,0,7,0.00
2014-5-12,88,75,64,72,62,42,85,65,44,20.69,20.59,4,0,7,0.00
2014-5-13,87,74,63,72,64,44,85,70,49,20.66,20.56,5,1,12,0.01
2014-5-14,82,72,64,69,58,44,84,63,43,20.61,20.44,4,1,12,0.64
2014-5-15,67,58,50,53,48,39,86,69,44,20.65,20.38,6,2,12,0.08
2014-5-16,65,54,43,53,41,29,88,63,32,20.67,20.58,8,2,16,0.01
2014-5-17,56,51,44,51,42,35,88,74,52,20.78,20.66,2,0,6,0.23
2014-5-18,63,56,53,57,44,36,87,66,52,20.79,20.72,2,0,4,0.30
2014-5-19,73,61,52,61,48,35,87,64,53,20.84,20.71,3,0,5,0.00
2014-5-20,84,70,55,66,53,37,87,58,36,20.79,20.63,7,1,14,0.00
2014-5-21,86,72,57,68,60,47,87,67,42,20.70,20.55,6,2,14,0.00
2014-5-22,82,78,75,70,69,68,81,74,66,20.58,20.55,4,1,11,0.00
2014-5-23,89,79,70,71,66,62,85,68,44,20.61,20.52,7,1,11,0.00
2014-5-24,81,73,66,66,61,56,83,66,46,20.68,20.57,5,1,8,0.00
2014-5-25,86,73,62,66,62,48,86,70,47,20.68,20.60,4,1,9,0.00
2014-5-26,88,74,62,70,62,44,86,67,48,20.73,20.60,5,1,12,0.06
2014-5-27,87,75,66,74,61,45,86,62,46,20.66,20.53,5,1,8,0.00
2014-5-28,88,76,65,71,63,45,86,66,46,20.58,20.47,8,1,10,0.00
2014-5-29,86,74,63,71,63,45,86,68,49,20.59,20.49,7,1,8,0.00
2014-5-30,85,74,65,71,63,50,86,69,50,20.61,20.53,5,1,8,0.03
2014-5-31,88,76,67,72,61,46,87,60,46,20.65,20.52,7,1,9,0.00
2014-6-1,81,75,70,69,66,62,87,72,54,20.73,20.63,4,1,8,0.00
2014-6-2,82,74,65,62,60,56,87,65,43,20.75,20.63,3,1,8,0.00
2014-6-3,83,74,63,73,66,59,87,76,61,20.66,20.51,4,0,7,0.02
2014-6-4,89,78,66,73,66,46,86,67,48,20.52,20.35,6,1,17,0.00
2014-6-5,85,76,68,75,67,54,86,75,56,20.43,20.27,10,2,19,0.13
2014-6-6,83,74,65,72,64,46,86,70,49,20.48,20.39,4,1,13,0.01
2014-6-7,88,78,67,71,65,47,86,66,49,20.52,20.40,5,1,9,0.00
2014-6-8,84,74,66,71,62,46,87,66,47,20.49,20.36,7,2,11,0.02
2014-6-9,82,71,63,71,64,46,87,78,50,20.53,20.39,5,0,11,0.27
2014-6-10,83,69,65,75,55,46,87,62,48,20.50,20.38,8,0,10,0.68
2014-6-11,79,70,66,71,57,47,87,64,49,20.43,20.31,7,0,10,0.08
2014-6-12,80,70,64,70,59,46,87,69,47,20.45,20.35,9,1,11,0.35
2014-6-13,81,70,66,73,56,47,87,61,48,20.50,20.38,4,0,9,0.30
2014-6-14,82,73,62,69,59,45,88,62,52,20.58,20.50,4,1,9,0.00
2014-6-15,89,76,63,72,65,52,88,70,48,20.67,20.55,5,1,9,0.00
2014-6-16,91,79,67,73,67,54,87,69,45,20.73,20.60,3,0,5,0.00
2014-6-17,93,80,66,74,68,56,87,67,42,20.73,20.58,6,1,9,0.00
2014-6-18,93,80,69,75,70,62,86,72,46,20.67,20.58,4,1,9,0.00
2014-6-19,93,78,69,76,68,54,86,73,52,20.69,20.59,4,0,8,0.01
2014-6-20,92,79,68,75,66,50,86,66,50,20.63,20.49,4,0,7,0.00
2014-6-21,91,78,70,75,68,52,87,73,48,20.53,20.39,8,1,18,0.10
2014-6-22,90,77,66,75,62,48,87,61,51,20.50,20.38,6,1,12,0.00
2014-6-23,90,76,68,76,64,50,87,68,49,20.56,20.42,7,1,8,0.53
2014-6-24,82,72,68,75,58,48,87,63,48,20.59,20.48,5,0,15,0.19
2014-6-25,89,78,69,74,62,48,87,60,45,20.59,20.48,6,2,11,0.00
2014-6-26,86,77,68,73,68,54,87,74,53,20.60,20.46,3,0,10,0.00
2014-6-27,89,79,72,75,71,66,86,76,55,20.62,20.52,7,1,11,0.00
2014-6-28,86,76,70,73,66,49,86,70,46,20.72,20.61,4,0,6,0.07
2014-6-29,89,76,70,76,66,50,86,72,47,20.73,20.61,5,0,8,0.19
2014-6-30,81,73,67,76,60,47,87,66,47,20.65,20.48,3,0,8,0.87
2014-7-1,91,81,71,79,67,50,86,64,46,20.54,20.39,5,1,10,0.00
2014-7-2,92,82,70,74,70,58,87,67,43,20.51,20.43,7,1,11,0.00
2014-7-3,84,77,69,70,63,58,86,65,43,20.62,20.48,4,1,9,0.00
2014-7-4,81,73,64,63,59,53,84,63,46,20.72,20.62,6,1,12,0.00
2014-7-5,85,75,63,65,59,52,77,59,45,20.78,20.65,5,1,9,0.00
2014-7-6,87,75,62,70,64,54,87,68,46,20.69,20.55,4,1,7,0.00
2014-7-7,90,79,66,72,65,57,86,64,33,20.57,20.46,6,1,16,0.00
2014-7-8,88,77,71,74,68,54,86,75,49,20.54,20.46,9,1,16,0.11
2014-7-9,86,76,71,73,67,59,86,75,61,20.56,20.48,7,1,11,0.01
2014-7-10,86,76,69,74,64,50,86,68,51,20.62,20.53,3,0,8,0.01
2014-7-11,89,79,66,71,65,55,87,65,39,20.70,20.60,6,1,8,0.00
2014-7-12,91,79,67,74,67,53,86,70,49,20.72,20.61,6,1,13,0.42
2014-7-13,92,80,70,76,65,50,86,62,48,20.67,20.53,8,1,11,0.00
2014-7-14,92,82,71,76,71,51,87,70,48,20.55,20.38,7,2,13,0.18
2014-7-15,84,75,69,74,62,49,87,65,48,20.47,20.35,4,1,12,0.03
2014-7-16,81,71,58,60,56,54,88,61,43,20.53,20.43,4,1,7,0.00
2014-7-17,81,70,56,65,58,52,88,69,46,20.59,20.51,3,0,8,0.00
2014-7-18,70,67,64,64,57,46,87,72,50,20.66,20.56,1,0,7,0.55
2014-7-19,73,68,63,66,54,46,83,60,48,20.62,20.52,2,0,5,0.96
2014-7-20,81,73,69,74,66,55,87,79,61,20.60,20.51,2,0,6,0.00
2014-7-21,82,76,72,75,65,51,88,70,48,20.62,20.52,7,1,8,0.43
2014-7-22,87,77,70,76,66,51,87,71,49,20.66,20.56,11,1,11,0.01
2014-7-23,87,78,69,76,67,50,87,70,50,20.62,20.46,3,0,9,0.00
2014-7-24,85,78,71,74,69,56,87,75,57,20.53,20.43,5,0,8,0.00
2014-7-25,86,75,63,70,64,51,87,70,43,20.60,20.49,5,1,10,0.00
2014-7-26,90,77,63,71,65,51,87,68,47,20.58,20.47,5,1,9,0.00
2014-7-27,92,82,72,78,72,67,87,74,57,20.55,20.38,6,2,16,0.00
2014-7-28,84,77,69,75,63,51,86,62,49,20.52,20.40,4,1,16,0.34
2014-7-29,79,71,63,63,59,53,88,68,43,20.59,20.49,3,1,8,0.00
2014-7-30,78,68,56,61,57,52,89,69,45,20.64,20.58,5,1,9,0.00
2014-7-31,77,70,63,69,64,59,88,81,69,20.62,20.57,4,0,9,0.00
2014-8-1,84,74,65,70,65,53,87,72,54,20.61,20.52,3,0,6,0.00
2014-8-2,83,72,67,73,64,50,87,76,51,20.62,20.55,4,0,10,0.32
2014-8-3,84,74,66,73,61,49,87,64,54,20.66,20.55,5,1,10,0.01
2014-8-4,86,75,63,68,62,56,89,68,39,20.64,20.53,5,1,9,0.00
2014-8-5,88,74,60,68,63,53,88,69,43,20.62,20.55,3,0,7,0.00
2014-8-6,91,78,64,74,68,59,88,72,51,20.58,20.47,5,1,10,0.00
2014-8-7,91,80,71,74,70,61,87,72,51,20.54,20.46,4,1,10,0.00
2014-8-8,85,75,71,76,64,53,87,69,51,20.57,20.47,5,0,8,0.34
2014-8-9,85,75,69,76,62,51,87,65,51,20.58,20.46,5,0,6,0.07
2014-8-10,87,78,73,78,68,56,87,73,56,20.54,20.46,7,1,8,0.00
2014-8-11,85,76,72,77,67,56,87,75,50,20.53,20.39,3,0,11,0.54
2014-8-12,87,77,71,75,64,53,88,66,52,20.47,20.36,4,1,12,0.00
2014-8-13,81,72,62,64,61,57,87,68,51,20.58,20.47,3,1,8,0.00
2014-8-14,82,71,58,65,60,50,89,71,49,20.62,20.50,5,1,8,0.00
2014-8-15,85,74,61,68,63,52,88,69,48,20.59,20.49,4,1,7,0.00
2014-8-16,89,76,64,69,64,56,88,68,39,20.58,20.50,4,0,7,0.00
2014-8-17,92,74,66,74,64,55,88,72,48,20.56,20.46,7,1,11,0.10
2014-8-18,84,73,69,76,61,52,88,67,54,20.51,20.38,6,1,11,0.67
2014-8-19,88,78,70,75,67,55,88,71,58,20.45,20.38,5,1,9,0.00
2014-8-20,93,78,71,79,68,54,88,71,54,20.67,20.44,10,1,13,0.39
2014-8-21,91,79,68,77,66,52,88,66,55,20.68,20.58,4,1,8,0.00
2014-8-22,92,82,72,78,71,57,88,71,52,20.62,20.50,6,1,10,0.00